Погода в Калгурли-Боулдере

Австралия     30°46′54″S   121°29′21″E
темп.,
°C
ветер,
м/с
пор.,
м/с
влажн.,
%
обл.,
%
осадки,
мм/ч
давл.,
гПа
погр.,
м
16 апреля, пт
пт1623:00+15юв612600 0.0 1026284
02:00+13вюв611670 0.0 1026269
05:00+12вюв59820 0.0 1027199
08:00+15в57674 0.0 1028411
11:00+20всв554132 0.0 10271485
14:00+23в44290 0.0 10241943
17:00+22вюв4528100 0.0 1025353
20:00+19юв4637100 0.0 102781
17 апреля, сб
сб1723:00+17вюв4442100 0.0 102755
02:00+16вюв4647100 0.0 102783
05:00+14в4654100 0.0 1028107
08:00+16всв575298 0.0 1029348
11:00+22всв553297 0.0 10281633
14:00+24в4425100 0.0 10252207
17:00+23вюв5626100 0.0 1025230
20:00+20вюв5832100 0.0 1026129
18 апреля, вс
вс1823:00+18в51137100 0.0 1026252
02:00+17в61144100 0.0 1025256
05:00+14в495553 0.0 1026169
08:00+17всв58515 0.0 1027358
11:00+23св44300 0.0 10251401
14:00+25св22225 0.0 10212527
17:00+24вюв11252 0.0 102011
20:00+20в44303 0.0 102133
19 апреля, пн
пн1923:00+19всв45330 0.0 102050
02:00+17св46380 0.0 101973
05:00+15с46410 0.0 101883
08:00+18с58310 0.0 1019294
11:00+26сз671880 0.0 10161271
14:00+28зсз47169 0.0 10123168
17:00+26юз461860 0.0 101299
20:00+22ю8132599 0.0 1014497
20 апреля, вт
вт2023:00+17ююв101468100 0.0 1017681
02:00+14ююв7138442 0.0 1017462
05:00+12ююв7139324 0.0 1018378
08:00+14юв8108033 0.0 1020544
11:00+21юв77490 0.0 10181126
14:00+24юв66360 0.0 10161813
17:00+23юв56350 0.0 1016318
20:00+19ююв5104315 0.0 1019173